• Join FlightAware (Why Join?)
  • Login
  • US Flag 
05:07PM EST


 

Airport Tracker/Info


-or-


 

Live Flight TrackerFlight Track Log ✈ SKW7374 ✈ 06-Nov-2013 ✈ KBRD - KMSP

Flight Track Log - Related Links

Times and Time Zones

All times are in EST time to prevent confusion due to time zone crossing. See the SKW7374 flight status page for this flight to view local times or setup timezone preferences in your user account.

Time Position Orientation Groundspeed Altitude Reporting Facility
EST Latitude Longitude Course Direction KTS MPH feet Rate Location/Type
04:59PM 46.4231 -94.0875 163° South 191 220 4,500  Level Minneapolis Center
05:00PM 46.3667 -94.0381 149° Southeast 258 297 7,500 3,060 Climbing Minneapolis Center
05:01PM 46.2931 -93.9950 158° South 281 323 10,900 2,580 Climbing Minneapolis Center
05:02PM 46.0072 -93.8907 159° South  Level Estimated
05:02PM 46.1953 -93.9428 160° South 333 383 12,900  Level Minneapolis Center
05:03PM 45.9390 -93.8437 154° Southeast  Level FlightAware Approximate
05:03PM 46.1056 -93.8928 159° South 345 397 13,100  Level Minneapolis Center
05:04PM 45.8693 -93.8019 163° South  Level Estimated
05:04PM 46.0058 -93.8422 161° South 368 423 13,100  Level Minneapolis Center
05:05PM 45.9044 -93.7844 158° South 387 445 13,100 -180 Level Minneapolis Center
05:06PM 45.7797 -93.7147 159° South 400 460 12,800 -540 Descending Minneapolis Center
05:07PM 45.6772 -93.6578 159° South 398 458 12,100 -780 Descending Minneapolis Center
05:08PM 45.5792 -93.6033 159° South 379 436 11,300 -540 Descending Minneapolis Center
05:09PM 45.4789 -93.5517 160° South 385 443 11,000 -180 Descending Minneapolis Center
05:10PM 45.3797 -93.4972 159° South 381 438 11,000  Level Minneapolis Center
05:11PM 45.2825 -93.4456 159° South 376 433 11,000  Level Minneapolis Center
05:13PM 45.1839 -93.3933 160° South 377 434 11,000 -180 Level Minneapolis Center
05:14PM 45.0739 -93.3339 159° South 346 398 10,700 -1,200 Descending Minneapolis Center
05:15PM 45.0036 -93.2800 152° Southeast 301 346 8,600 -1,320 Descending Minneapolis Center
05:16PM 44.9633 -93.1875 122° Southeast 270 311 8,000 -1,140 Descending Minneapolis Center
05:17PM 44.9344 -93.0992 115° Southeast 247 284 6,300 -1,620 Descending Minneapolis Center
05:18PM 44.9078 -93.0064 112° Southeast 252 290 4,700 -1,140 Descending Minneapolis Center
05:19PM 44.8592 -92.9775 157° South 226 260 4,000 -840 Descending Minneapolis Center
05:20PM 44.8503 -93.0456 260° West 182 209 3,000 -780 Descending Minneapolis Center
05:21PM 44.8497 -93.1153 269° West 152 175 2,400 -780 Descending Minneapolis Center
05:22PM 44.8656 -93.1578 298° West 126 145 1,500 -900 Descending Minneapolis Center